When you browse on this site, cookies collect data to enhance your experience and personalize the content and advertising you see.
Visit our Privacy Policy to learn more. By continuing to use the site, you agree to this use of cookies and data.
  • Em Portugal
  • Lista de países
  • Para 7 dias
  • Temperatura da água
  • Mapas de satélite
  • Mapa do tempo
  • Widgets de tempo
  • user-avatar
    Iniciar Sessão

    Previsão horária em Igly

    Hoje, 25 Maio, Sábado

    Tempo Temperatura Precipitação Vento Pressão Humidade
    00:00 +11°C° 0 mm 3 m/s 755 mmHg 74%
    01:00 +12°C° 0 mm 3 m/s 755 mmHg 73%
    02:00 +11°C° 0 mm 3 m/s 755 mmHg 75%
    03:00 +11°C° 0 mm 3 m/s 755 mmHg 77%
    04:00 +11°C° 0 mm 3 m/s 755 mmHg 79%
    05:00 +12°C° 0 mm 3 m/s 755 mmHg 79%
    06:00 +13°C° 0 mm 3 m/s 755 mmHg 79%
    07:00 +16°C° 0 mm 3 m/s 755 mmHg 79%
    08:00 +16°C° 0 mm 3 m/s 755 mmHg 77%
    09:00 +17°C° 0 mm 3 m/s 756 mmHg 74%
    10:00 +17°C° 0 mm 4 m/s 756 mmHg 72%
    11:00 +17°C° 0 mm 4 m/s 756 mmHg 70%
    12:00 +17°C° 0 mm 4 m/s 756 mmHg 69%
    13:00 +16°C° 0 mm 5 m/s 756 mmHg 68%
    14:00 +17°C° 0 mm 4 m/s 756 mmHg 67%
    15:00 +17°C° 0 mm 4 m/s 757 mmHg 67%
    16:00 +17°C° 0 mm 4 m/s 757 mmHg 66%
    17:00 +16°C° 0 mm 3 m/s 756 mmHg 71%
    18:00 +14°C° 0 mm 3 m/s 756 mmHg 76%
    19:00 +14°C° 0 mm 2 m/s 756 mmHg 81%
    20:00 +13°C° 0 mm 2 m/s 756 mmHg 84%
    21:00 +10°C° 0 mm 2 m/s 756 mmHg 87%
    22:00 +9°C° 0 mm 3 m/s 757 mmHg 90%
    23:00 +8°C° 0 mm 3 m/s 757 mmHg 92%

    Amanhã, 26 Maio, Domingo

    Tempo Temperatura Precipitação Vento Pressão Humidade
    00:00 +8°C° 0 mm 3 m/s 757 mmHg 93%
    01:00 +7°C° 0 mm 3 m/s 757 mmHg 94%
    02:00 +7°C° 0 mm 3 m/s 756 mmHg 95%
    03:00 +8°C° 0 mm 3 m/s 756 mmHg 95%
    04:00 +8°C° 0 mm 3 m/s 756 mmHg 96%
    05:00 +8°C° 0 mm 4 m/s 756 mmHg 91%
    06:00 +10°C° 0 mm 5 m/s 756 mmHg 86%
    07:00 +12°C° 0 mm 5 m/s 756 mmHg 81%
    08:00 +13°C° 0 mm 5 m/s 756 mmHg 77%
    09:00 +14°C° 0 mm 6 m/s 756 mmHg 74%
    10:00 +14°C° 0 mm 6 m/s 755 mmHg 70%
    11:00 +14°C° 0.1 mm 6 m/s 755 mmHg 71%
    12:00 +15°C° 0.1 mm 6 m/s 755 mmHg 72%
    13:00 +15°C° 0.1 mm 6 m/s 755 mmHg 73%
    14:00 +15°C° 0.1 mm 5 m/s 755 mmHg 73%
    15:00 +15°C° 0.1 mm 4 m/s 755 mmHg 73%
    16:00 +15°C° 0.1 mm 4 m/s 754 mmHg 74%
    17:00 +15°C° 0 mm 4 m/s 754 mmHg 75%
    18:00 +14°C° 0 mm 3 m/s 754 mmHg 77%
    19:00 +14°C° 0 mm 3 m/s 754 mmHg 78%
    20:00 +14°C° 0 mm 3 m/s 754 mmHg 81%
    21:00 +13°C° 0 mm 4 m/s 754 mmHg 84%
    22:00 +13°C° 0 mm 4 m/s 754 mmHg 87%
    23:00 +13°C° 0 mm 4 m/s 754 mmHg 89%

    Depois de amanhã, 27 Maio, Segunda-feira

    Tempo Temperatura Precipitação Vento Pressão Humidade
    00:00 +13°C° 0 mm 4 m/s 754 mmHg 90%
    01:00 +13°C° 0 mm 4 m/s 754 mmHg 92%
    02:00 +13°C° 0.2 mm 4 m/s 753 mmHg 93%
    03:00 +13°C° 0.2 mm 4 m/s 753 mmHg 94%
    04:00 +13°C° 0.2 mm 4 m/s 753 mmHg 95%
    05:00 +14°C° 0 mm 5 m/s 753 mmHg 92%
    06:00 +15°C° 0 mm 6 m/s 753 mmHg 90%
    07:00 +16°C° 0 mm 7 m/s 753 mmHg 87%
    08:00 +17°C° 0.3 mm 6 m/s 752 mmHg 86%
    09:00 +17°C° 0.3 mm 6 m/s 752 mmHg 86%
    10:00 +19°C° 0.3 mm 6 m/s 752 mmHg 85%
    11:00 +17°C° 1 mm 5 m/s 752 mmHg 88%
    12:00 +17°C° 1 mm 4 m/s 753 mmHg 91%
    13:00 +16°C° 1 mm 3 m/s 753 mmHg 94%
    14:00 +18°C° 0.3 mm 3 m/s 753 mmHg 89%
    15:00 +19°C° 0.3 mm 4 m/s 753 mmHg 85%
    16:00 +20°C° 0.3 mm 4 m/s 753 mmHg 80%
    17:00 +19°C° 0.4 mm 3 m/s 753 mmHg 84%
    18:00 +18°C° 0.4 mm 3 m/s 753 mmHg 88%
    19:00 +16°C° 0.4 mm 2 m/s 754 mmHg 92%
    20:00 +15°C° 0 mm 2 m/s 754 mmHg 93%
    21:00 +13°C° 0 mm 2 m/s 754 mmHg 94%
    22:00 +12°C° 0 mm 1 m/s 755 mmHg 94%
    23:00 +11°C° 0 mm 1 m/s 755 mmHg 94%

    28 Maio, Terça-feira

    Tempo Temperatura Precipitação Vento Pressão Humidade
    00:00 +11°C° 0 mm 1 m/s 755 mmHg 94%
    01:00 +10°C° 0 mm 1 m/s 755 mmHg 93%
    02:00 +10°C° 0 mm 1 m/s 755 mmHg 93%
    03:00 +9°C° 0 mm 0 m/s 755 mmHg 93%
    04:00 +8°C° 0 mm 0 m/s 755 mmHg 92%
    05:00 +11°C° 0 mm 1 m/s 755 mmHg 90%
    06:00 +12°C° 0 mm 1 m/s 755 mmHg 88%
    07:00 +14°C° 0 mm 2 m/s 755 mmHg 86%
    08:00 +15°C° 0 mm 2 m/s 755 mmHg 82%
    09:00 +16°C° 0 mm 2 m/s 755 mmHg 78%
    10:00 +17°C° 0 mm 2 m/s 755 mmHg 74%
    11:00 +16°C° 0.3 mm 2 m/s 754 mmHg 77%
    12:00 +16°C° 0.3 mm 2 m/s 754 mmHg 80%
    13:00 +16°C° 0.3 mm 3 m/s 754 mmHg 83%
    14:00 +16°C° 0.1 mm 3 m/s 754 mmHg 86%
    15:00 +14°C° 0.1 mm 3 m/s 753 mmHg 88%
    16:00 +14°C° 0.1 mm 3 m/s 753 mmHg 91%
    17:00 +13°C° 0.2 mm 3 m/s 753 mmHg 92%
    18:00 +13°C° 0.2 mm 4 m/s 753 mmHg 93%
    19:00 +12°C° 0.2 mm 4 m/s 753 mmHg 94%
    20:00 +12°C° 0.1 mm 4 m/s 753 mmHg 94%
    21:00 +12°C° 0.1 mm 4 m/s 753 mmHg 94%
    22:00 +11°C° 0.1 mm 4 m/s 752 mmHg 94%
    23:00 +11°C° 0.1 mm 4 m/s 752 mmHg 94%

    29 Maio, Quarta-feira

    Tempo Temperatura Precipitação Vento Pressão Humidade
    00:00 +10°C° 0.1 mm 5 m/s 752 mmHg 94%
    01:00 +10°C° 0.1 mm 5 m/s 752 mmHg 94%
    02:00 +10°C° 0.3 mm 5 m/s 752 mmHg 94%
    03:00 +10°C° 0.3 mm 5 m/s 752 mmHg 95%
    04:00 +10°C° 0.3 mm 5 m/s 751 mmHg 95%
    05:00 +10°C° 1.7 mm 6 m/s 752 mmHg 95%
    06:00 +10°C° 1.7 mm 7 m/s 752 mmHg 95%
    07:00 +9°C° 1.7 mm 7 m/s 752 mmHg 95%
    08:00 +9°C° 2 mm 7 m/s 752 mmHg 94%
    09:00 +9°C° 2 mm 7 m/s 753 mmHg 94%
    10:00 +9°C° 2 mm 7 m/s 753 mmHg 94%
    11:00 +8°C° 2.5 mm 7 m/s 754 mmHg 94%
    12:00 +8°C° 2.5 mm 6 m/s 754 mmHg 94%
    13:00 +8°C° 2.5 mm 6 m/s 755 mmHg 94%
    14:00 +9°C° 0.1 mm 6 m/s 756 mmHg 89%
    15:00 +11°C° 0.1 mm 6 m/s 756 mmHg 83%
    16:00 +13°C° 0.1 mm 6 m/s 757 mmHg 78%
    17:00 +12°C° 0 mm 5 m/s 757 mmHg 78%
    18:00 +12°C° 0 mm 4 m/s 758 mmHg 78%
    19:00 +11°C° 0 mm 3 m/s 759 mmHg 79%
    20:00 +10°C° 0 mm 4 m/s 759 mmHg 77%
    21:00 +8°C° 0 mm 4 m/s 760 mmHg 76%
    22:00 +6°C° 0 mm 4 m/s 760 mmHg 74%
    23:00 +6°C° 0 mm 4 m/s 761 mmHg 76%

    30 Maio, Quinta-feira

    Tempo Temperatura Precipitação Vento Pressão Humidade
    00:00 +5°C° 0 mm 4 m/s 761 mmHg 77%
    01:00 +5°C° 0 mm 3 m/s 762 mmHg 78%
    02:00 +5°C° 0 mm 3 m/s 762 mmHg 81%
    03:00 +4°C° 0 mm 3 m/s 763 mmHg 83%
    04:00 +4°C° 0 mm 3 m/s 763 mmHg 86%
    05:00 +7°C° 0 mm 3 m/s 764 mmHg 81%
    06:00 +8°C° 0 mm 3 m/s 764 mmHg 76%
    07:00 +10°C° 0 mm 3 m/s 765 mmHg 71%
    08:00 +12°C° 0 mm 2 m/s 765 mmHg 66%
    09:00 +14°C° 0 mm 2 m/s 765 mmHg 61%
    10:00 +15°C° 0 mm 1 m/s 765 mmHg 56%
    11:00 +16°C° 0 mm 2 m/s 765 mmHg 54%
    12:00 +16°C° 0 mm 2 m/s 765 mmHg 53%
    13:00 +17°C° 0 mm 2 m/s 765 mmHg 51%
    14:00 +17°C° 0 mm 3 m/s 764 mmHg 53%
    15:00 +18°C° 0 mm 3 m/s 764 mmHg 55%
    16:00 +18°C° 0 mm 4 m/s 763 mmHg 57%
    17:00 +17°C° 0 mm 3 m/s 763 mmHg 64%
    18:00 +14°C° 0 mm 3 m/s 762 mmHg 70%
    19:00 +13°C° 0 mm 3 m/s 762 mmHg 76%
    20:00 +12°C° 0 mm 3 m/s 762 mmHg 77%
    21:00 +11°C° 0 mm 3 m/s 762 mmHg 78%
    22:00 +8°C° 0 mm 4 m/s 762 mmHg 78%
    23:00 +8°C° 0 mm 4 m/s 761 mmHg 76%
    Mostrar mais